This is the latest recevied weather packets stored in our database for station/object EA2MKR. If no packets are shown the sender has not sent any weather packets the latest 10 day(s).
| Time | Temp. | Humidity | Pressure | Rain* | Wind** | Luminosity | Snow |
|---|---|---|---|---|---|---|---|
| 1777650074 | 21.11° C | 61% | 955.5 hPa | 0 mm | - | - | - |
| 1777649657 | 21.11° C | 62% | 955.5 hPa | 0 mm | - | - | - |
| 1777649473 | 21.11° C | 62% | 955.6 hPa | 0 mm | - | - | - |
| 1777649057 | 21.11° C | 60% | 955.6 hPa | 0 mm | - | - | - |
| 1777648756 | 21.67° C | 61% | 955.6 hPa | 0 mm | - | - | - |
| 1777648457 | 22.22° C | 60% | 955.6 hPa | 0 mm | - | - | - |
| 1777648156 | 21.67° C | 63% | 955.7 hPa | 0 mm | - | - | - |
| 1777647973 | 21.67° C | 62% | 955.7 hPa | 0 mm | - | - | - |
| 1777647556 | 21.67° C | 64% | 955.7 hPa | 0 mm | - | - | - |
| 1777647374 | 21.67° C | 63% | 955.8 hPa | 0 mm | - | - | - |
| 1777646956 | 21.67° C | 65% | 955.9 hPa | 0 mm | - | - | - |
| 1777646774 | 20.56° C | 64% | 956 hPa | 0 mm | - | - | - |
| 1777646473 | 21.11° C | 64% | 956 hPa | 0 mm | - | - | - |
| 1777646056 | 20.56° C | 66% | 956.1 hPa | 0 mm | - | - | - |
| 1777645755 | 20.56° C | 65% | 956.1 hPa | 0 mm | - | - | - |
| 1777645455 | 21.11° C | 66% | 956.2 hPa | 0 mm | - | - | - |
| 1777645155 | 20.56° C | 67% | 956.2 hPa | 0 mm | - | - | - |
| 1777644974 | 20.56° C | 67% | 956.3 hPa | 0 mm | - | - | - |
| 1777644556 | 20.56° C | 67% | 956.4 hPa | 0 mm | - | - | - |
| 1777644256 | 20.56° C | 66% | 956.4 hPa | 0 mm | - | - | - |
| 1777643955 | 20.56° C | 69% | 956.3 hPa | 0 mm | - | - | - |
| 1777643655 | 20° C | 69% | 956.4 hPa | 0 mm | - | - | - |
| 1777643474 | 20° C | 68% | 956.4 hPa | 0 mm | - | - | - |
| 1777643054 | 20° C | 68% | 956.5 hPa | 0 mm | - | - | - |
| 1777642755 | 20.56° C | 69% | 956.5 hPa | 0 mm | - | - | - |
* Rain latest hour (hover to see other rain measurements)
** Current wind speed in m/s (hover to see current wind gust speed)